Flag for French Polynesia Weather past 2 weeks in Papeete, Tahiti, French Polynesia

81 °F

Partly cloudy.

Feels Like: 85 °F
Forecast: 78 / 86 °F
Wind: 3 mph from North

Location: Tahiti-Faaa

Current Time: Nov 25, 2015 at 7:36:46 PM

Latest Report: Nov 25, 2015 at 6:30 PM

Visibility: N/A

Pressure: 29.83 "Hg

Humidity: 79%

Dew point: 73 °F

Location of PapeeteLocation

Historic Weather in Papeete — Graph


Papeete temperature yesterday

Maximum temperature yesterday: 88 °F (at 1:00 PM)
Minimum temperature yesterday: 75 °F (at 2:30 AM)
Average temperature yesterday: 81 °F

Past Weeks' High & Low Weather Summary

High90 °F (Nov 16, 4:00 PM)94% (Nov 10, 8:00 PM)29.98 "Hg (Nov 10, 8:00 PM)
Low75 °F (Nov 10, 7:00 PM)55% (Nov 19, 11:30 AM)29.77 "Hg (Nov 25, 3:00 PM)
Average81 °F74%29.89 "Hg
* Reported Nov 10 6:30 PM — Nov 25 6:00 PM, Papeete, Weather by CustomWeather, © 2015

Note: Actual official high and low records may vary slightly from our data, if they occured in-between our weather recording intervals... More about our weather records


Papeete weather history for previous 24 hours

Time TempWeatherWind HumidityBarometerVisibility
6:00 PM
Wed, Nov 25
81 °FScattered showers. Partly sunny.2 mph79%29.80 "HgN/A
5:00 PM82 °FScattered showers. Partly sunny.3 mph74%29.80 "HgN/A
4:37 PM82 °FScattered showers. Partly sunny.5 mph79%29.77 "HgN/A
4:00 PM82 °FScattered showers. Partly sunny.5 mph74%29.77 "HgN/A
3:30 PM82 °FScattered showers. Partly sunny.7 mph79%29.77 "HgN/A
3:00 PM81 °FScattered showers. Broken clouds.3 mph79%29.77 "HgN/A
2:30 PM79 °FScattered showers. Broken clouds.5 mph84%29.80 "HgN/A
2:00 PM81 °FScattered showers. Broken clouds.16 mph79%29.80 "HgN/A
1:04 PM84 °FScattered showers. Partly sunny.12 mph74%29.80 "HgN/A
12:30 PM86 °FPartly sunny.9 mph70%29.83 "HgN/A
12:00 PM86 °FScattered clouds.9 mph66%29.83 "HgN/A
11:30 AM86 °FPassing clouds.9 mph66%29.83 "HgN/A
11:00 AM84 °FPassing clouds.6 mph70%29.83 "HgN/A
10:30 AM86 °FPassing clouds.3 mph66%29.86 "HgN/A
10:12 AM84 °FScattered clouds.3 mph70%29.86 "HgN/A
9:30 AM84 °FBroken clouds.6 mph70%29.86 "HgN/A
9:00 AM84 °FBroken clouds.5 mph66%29.86 "HgN/A
8:30 AM84 °FBroken clouds.5 mph66%29.86 "HgN/A
8:00 AM84 °FBroken clouds.5 mph70%29.86 "HgN/A
7:30 AM84 °FScattered clouds.3 mph66%29.86 "HgN/A
7:00 AM82 °FScattered clouds.No wind70%29.86 "HgN/A
6:30 AM81 °FPartly sunny.3 mph74%29.86 "HgN/A
6:00 AM77 °FPartly sunny.3 mph79%29.86 "HgN/A
5:30 AM77 °FWarm.3 mph79%29.83 "HgN/A
5:00 AM77 °FWarm.1 mph79%29.83 "HgN/A
4:30 AM77 °FWarm.2 mph79%29.83 "HgN/A
4:00 AM75 °FMild.3 mph83%29.83 "HgN/A
3:30 AM77 °FWarm.5 mph79%29.83 "HgN/A
3:00 AM77 °FPassing clouds.5 mph79%29.83 "HgN/A
2:30 AM77 °FPassing clouds.2 mph83%29.83 "HgN/A
2:00 AM77 °FPassing clouds.2 mph83%29.83 "HgN/A
1:30 AM79 °FPassing clouds.3 mph79%29.83 "HgN/A
1:00 AM79 °FPassing clouds.3 mph79%29.86 "HgN/A
12:30 AM79 °FPassing clouds.5 mph84%29.86 "HgN/A
12:00 AM79 °FPassing clouds.8 mph79%29.86 "HgN/A
11:30 PM
Tue, Nov 24
79 °FPassing clouds.2 mph79%29.89 "HgN/A
11:00 PM79 °FPassing clouds.5 mph79%29.89 "HgN/A
10:30 PM79 °FPassing clouds.3 mph79%29.89 "HgN/A
10:00 PM81 °FPartly cloudy.6 mph74%29.89 "HgN/A
9:00 PM81 °FPassing clouds.7 mph70%29.89 "HgN/A
8:00 PM82 °FPassing clouds.1 mph66%29.86 "HgN/A
7:30 PM82 °FPassing clouds.7 mph66%29.86 "HgN/A
7:00 PM82 °FPassing clouds.8 mph62%29.86 "HgN/A
Weather by CustomWeather, © 2015

See weather overviewHow to use our weather pages